Location: Audinghen
(50.8518°N, 1.6129°E)
Time: 04:38:11
(UTC+00:00)

Cosmos 1354 Rocket - Pass Details

Date: 07 August 2020
Orbit: 765 x 783 km, 74.0° (Epoch: 19 September)

Event Time Altitude Azimuth Distance (km) Brightness Sun altitude
Exits shadow 00:16:38 43° 135° (SE) 1,097 4.5 -22.7°
Maximum altitude 00:17:31 47° 106° (ESE) 1,033 4.5 -22.7°
Drops below altitude 10° 00:22:37 10° 34° (NE) 2,350 7.4 -22.6°
Sets 00:25:05 0° 29° (NNE) 3,282 8.4 -22.6°
